KB2SKP Weather Reports


Display with metric or nautical units.
time (UTC)temp
F
wind
direction
speed
MPH
gust
MPH
rain 1hr
in
rain 24hr
in
rain mn
in
humidity
%
barometer
mb
20260507155616 57 157 0.0 3.0 0.00 0.02 0.02 51 1008.2
20260507155114 57 168 1.0 3.0 0.00 0.02 0.02 53 1008.2
20260507154610 56 257 2.0 3.0 0.00 0.02 0.02 51 1008.6
20260507154107 56 246 0.0 3.0 0.00 0.02 0.02 53 1008.5
20260507153604 56 261 0.0 3.0 0.00 0.02 0.02 51 1008.4
20260507153100 56 176 4.0 4.0 0.00 0.02 0.02 50 1008.8
20260507152555 57 245 0.0 3.0 0.00 0.02 0.02 51 1008.6
20260507152047 57 214 0.0 1.0 0.00 0.02 0.02 53 1008.6
20260507151543 56 199 0.0 1.0 0.00 0.02 0.02 53 1008.4
20260507151040 57 241 2.0 2.0 0.00 0.02 0.02 52 1008.4
20260507150537 57 264 1.0 3.0 0.00 0.02 0.02 50 1008.4
20260507150034 57 225 0.0 3.0 0.00 0.02 0.02 50 1008.6
20260507145528 56 226 4.0 4.0 0.00 0.02 0.02 49 1008.8
20260507145027 56 219 8.0 8.0 0.00 0.02 0.02 48 1009.0
20260507144523 56 233 0.0 4.0 0.00 0.02 0.02 49 1008.6
20260507144021 57 263 2.0 3.0 0.00 0.02 0.02 50 1009.0
20260507143518 57 329 1.0 3.0 0.00 0.02 0.02 51 1009.0
20260507143015 57 244 0.0 5.0 0.00 0.02 0.02 53 1008.7
20260507142510 57 186 3.0 4.0 0.00 0.02 0.02 52 1008.8
20260507142007 57 249 1.0 5.0 0.00 0.02 0.02 54 1008.9
20260507141503 57 275 2.0 4.0 0.00 0.02 0.02 60 1008.9
20260507141000 57 56 0.0 5.0 0.00 0.02 0.02 63 1008.8
20260507140456 57 195 2.0 4.0 0.00 0.02 0.02 63 1008.7
20260507135954 57 268 2.0 5.0 0.00 0.02 0.02 62 1008.9
20260507135451 57 99 2.0 3.0 0.00 0.02 0.02 65 1008.6
20260507134948 57 218 1.0 2.0 0.00 0.02 0.02 70 1008.6
20260507134444 57 233 0.0 5.0 0.00 0.02 0.02 73 1008.4
20260507133941 57 196 3.0 3.0 0.00 0.02 0.02 72 1008.5
20260507133437 57 288 0.0 3.0 0.00 0.02 0.02 73 1008.8
20260507132936 56 206 2.0 4.0 0.00 0.02 0.02 76 1008.6
20260507132431 56 161 1.0 3.0 0.00 0.02 0.02 79 1008.7
20260507131928 56 307 3.0 4.0 0.00 0.02 0.02 78 1008.7
20260507131425 56 154 1.0 4.0 0.00 0.02 0.02 78 1008.6
20260507130922 57 223 4.0 4.0 0.00 0.02 0.02 78 1008.4
20260507130419 57 192 0.0 2.0 0.00 0.02 0.02 82 1008.7
20260507125918 56 181 3.0 3.0 0.00 0.02 0.02 81 1008.5
20260507125415 57 99 2.0 3.0 0.00 0.02 0.02 82 1008.7
20260507124913 56 312 3.0 4.0 0.00 0.02 0.02 83 1008.4
20260507124408 56 109 2.0 3.0 0.00 0.02 0.02 83 1008.3
20260507123907 56 132 0.0 3.0 0.00 0.02 0.02 85 1008.3
20260507123404 55 257 2.0 2.0 0.00 0.02 0.02 86 1008.3
20260507122900 55 320 0.0 3.0 0.00 0.02 0.02 85 1008.2
20260507122355 55 324 2.0 2.0 0.00 0.02 0.02 85 1008.6
20260507121852 55 97 2.0 3.0 0.00 0.02 0.02 87 1008.4
20260507121347 55 84 1.0 2.0 0.00 0.02 0.02 87 1008.2
20260507120844 55 95 1.0 2.0 0.00 0.02 0.02 87 1008.5
20260507120341 55 187 0.0 3.0 0.00 0.02 0.02 86 1008.6
20260507115837 55 282 2.0 3.0 0.00 0.02 0.02 87 1008.5
20260507115332 55 302 0.0 3.0 0.00 0.02 0.02 89 1008.4
20260507114828 55 198 0.0 3.0 0.00 0.02 0.02 89 1008.3
20260507114326 55 148 0.0 2.0 0.00 0.02 0.02 90 1008.1
20260507113823 55 344 1.0 3.0 0.00 0.02 0.02 90 1008.2
20260507113320 55 68 2.0 3.0 0.00 0.02 0.02 90 1008.6
20260507112818 55 224 0.0 2.0 0.00 0.02 0.02 89 1008.8
20260507112314 55 102 1.0 3.0 0.00 0.02 0.02 90 1008.6
20260507111812 55 202 1.0 3.0 0.00 0.02 0.02 91 1008.6
20260507111309 55 315 0.0 2.0 0.00 0.02 0.02 90 1008.3
20260507110805 55 121 2.0 3.0 0.00 0.02 0.02 90 1008.1
20260507110301 55 175 0.0 3.0 0.00 0.02 0.02 90 1008.7
20260507105758 55 175 2.0 2.0 0.00 0.02 0.02 90 1008.4
20260507105254 55 127 0.0 2.0 0.00 0.02 0.02 90 1008.2
20260507104751 54 258 1.0 3.0 0.00 0.02 0.02 91 1008.1
20260507104248 55 336 0.0 3.0 0.00 0.02 0.02 92 1007.4
20260507103743 55 144 0.0 2.0 0.00 0.02 0.02 91 1007.5
20260507103235 55 201 0.0 3.0 0.00 0.02 0.02 90 1007.7
20260507102731 55 210 1.0 3.0 0.00 0.02 0.02 89 1007.7
20260507102228 56 243 2.0 4.0 0.00 0.02 0.02 87 1008.0
20260507101724 56 274 1.0 6.0 0.00 0.02 0.02 86 1007.8
20260507101219 56 285 2.0 3.0 0.00 0.02 0.02 86 1007.9
20260507100717 57 234 2.0 9.0 0.00 0.02 0.02 87 1007.8
20260507100215 57 183 3.0 3.0 0.00 0.02 0.02 87 1008.0
20260507095713 57 157 0.0 3.0 0.00 0.02 0.02 88 1007.6
20260507095209 57 318 0.0 6.0 0.00 0.02 0.02 87 1007.2
20260507094706 57 47 1.0 2.0 0.00 0.02 0.02 89 1007.2
20260507094203 57 345 0.0 3.0 0.00 0.02 0.02 89 1007.3
20260507093700 57 251 1.0 3.0 0.00 0.02 0.02 89 1007.2
20260507093159 57 164 2.0 3.0 0.00 0.02 0.02 89 1007.2
20260507092655 57 183 2.0 3.0 0.00 0.02 0.02 89 1007.3
20260507092151 57 314 2.0 5.0 0.00 0.02 0.02 89 1007.4
20260507091648 57 31 2.0 3.0 0.00 0.02 0.02 90 1007.2
20260507091144 57 3 2.0 3.0 0.00 0.02 0.02 90 1007.2
20260507090640 57 332 3.0 3.0 0.00 0.02 0.02 89 1007.1
20260507090137 57 172 1.0 3.0 0.00 0.02 0.02 90 1007.2
20260507085634 57 261 1.0 5.0 0.00 0.02 0.02 90 1006.8
20260507085131 57 299 1.0 3.0 0.00 0.02 0.02 89 1007.0
20260507084628 57 266 3.0 4.0 0.00 0.02 0.02 91 1007.0
20260507084125 57 269 0.0 7.0 0.00 0.02 0.02 91 1007.1
20260507083621 57 230 1.0 3.0 0.00 0.02 0.02 92 1007.1
20260507083118 57 201 0.0 6.0 0.00 0.02 0.02 93 1006.7
20260507082614 58 168 0.0 2.0 0.00 0.02 0.02 93 1006.6
20260507082111 58 199 0.0 2.0 0.00 0.02 0.02 93 1006.6
20260507081607 58 166 1.0 2.0 0.00 0.02 0.02 93 1006.4
20260507081104 58 84 1.0 3.0 0.00 0.02 0.02 93 1006.4
20260507080600 58 335 3.0 3.0 0.00 0.02 0.02 93 1006.7
20260507080056 58 48 0.0 4.0 0.00 0.02 0.02 93 1006.7
20260507075551 58 113 1.0 2.0 0.00 0.02 0.02 93 1006.8
20260507075048 58 204 3.0 3.0 0.00 0.02 0.02 93 1007.0
20260507074545 59 51 1.0 4.0 0.00 0.02 0.02 94 1007.0
20260507074043 59 154 3.0 3.0 0.00 0.02 0.02 94 1006.7
20260507073538 59 44 0.0 3.0 0.00 0.02 0.02 94 1006.6
20260507073030 59 233 2.0 3.0 0.00 0.02 0.02 94 1006.8
20260507072527 60 226 3.0 3.0 0.00 0.02 0.02 94 1006.5
20260507072024 60 112 2.0 4.0 0.00 0.02 0.02 94 1006.5
20260507071522 60 245 0.0 4.0 0.00 0.02 0.02 94 1006.1
20260507071018 60 222 3.0 3.0 0.00 0.02 0.02 94 1006.1
20260507070516 60 258 3.0 4.0 0.00 0.02 0.02 94 1005.8
20260507070014 61 277 1.0 3.0 0.00 0.02 0.02 95 1005.5
20260507065509 62 3 0.0 2.0 0.00 0.02 0.02 96 1005.4
20260507065006 62 298 0.0 2.0 0.00 0.02 0.02 96 1005.3
20260507064504 62 159 0.0 1.0 0.00 0.02 0.02 96 1005.2
20260507064003 62 130 0.0 3.0 0.00 0.02 0.02 95 1005.1
20260507063459 62 190 0.0 1.0 0.00 0.02 0.02 96 1004.9
20260507062956 62 221 0.0 1.0 0.00 0.02 0.02 96 1004.8
20260507062453 62 210 0.0 2.0 0.00 0.02 0.02 96 1005.1
20260507061950 62 244 0.0 1.0 0.00 0.02 0.02 96 1005.2
20260507061448 63 208 0.0 2.0 0.00 0.02 0.02 96 1005.2
20260507060946 63 251 1.0 2.0 0.00 0.02 0.02 96 1005.2
20260507060443 63 2 0.0 3.0 0.02 0.02 0.02 96 1005.7
20260507055939 63 31 0.0 1.0 0.02 0.02 0.02 96 1005.6
20260507055435 63 109 0.0 2.0 0.00 0.02 0.02 96 1005.6
20260507054932 63 291 0.0 1.0 0.00 0.02 0.02 96 1005.6
20260507054428 64 79 2.0 2.0 0.00 0.02 0.02 96 1005.8
20260507053925 64 184 0.0 2.0 0.02 0.02 0.02 96 1006.0
20260507053422 64 149 1.0 4.0 0.07 0.02 0.02 96 1006.0
20260507052921 63 254 0.0 3.0 0.09 0.02 0.02 96 1005.8
20260507052418 63 211 0.0 2.0 0.05 0.01 0.01 95 1005.8
20260507051909 63 113 0.0 2.0 0.00 0.00 0.00 95 1005.8
20260507051407 63 131 0.0 1.0 0.00 0.00 0.00 95 1006.1
20260507050904 63 102 0.0 2.0 0.00 0.00 0.00 94 1006.0
20260507050400 63 110 0.0 1.0 0.00 0.00 0.00 94 1005.8
20260507045857 63 260 0.0 1.0 0.00 0.00 0.00 94 1005.8
20260507045353 63 180 0.0 1.0 0.00 0.00 0.00 94 1005.7
20260507044851 63 243 0.0 1.0 0.00 0.00 0.00 94 1005.7
20260507044347 63 204 0.0 1.0 0.00 0.00 0.00 94 1005.8
20260507043843 63 124 0.0 2.0 0.00 0.00 0.00 94 1006.0
20260507043340 63 116 1.0 2.0 0.00 0.00 0.00 94 1005.7
20260507042836 63 89 0.0 1.0 0.00 0.00 0.00 94 1005.5
20260507042332 63 20 0.0 1.0 0.00 0.00 0.00 94 1005.6
20260507041829 63 126 0.0 1.0 0.00 0.00 0.00 94 1006.0
20260507041325 63 184 0.0 0.0 0.00 0.00 0.00 94 1005.6
20260507040823 63 256 0.0 0.0 0.00 0.00 0.00 93 1005.8
20260507040319 63 123 1.0 1.0 0.00 0.00 0.00 93 1005.6
20260507035815 63 49 0.0 1.0 0.00 0.05 0.05 93 1005.8
20260507035310 64 124 0.0 2.0 0.00 0.05 0.05 93 1006.1
20260507034809 64 11 0.0 1.0 0.00 0.05 0.05 93 1005.9
20260507034305 64 269 0.0 1.0 0.00 0.05 0.05 93 1006.2
20260507033803 63 233 1.0 1.0 0.00 0.05 0.05 93 1006.1
20260507033301 63 326 0.0 2.0 0.00 0.05 0.05 93 1006.0
20260507032757 63 251 0.0 2.0 0.00 0.05 0.05 93 1005.7
20260507032253 63 299 0.0 1.0 0.00 0.05 0.05 93 1005.6
20260507031750 63 129 0.0 0.0 0.00 0.05 0.05 93 1005.2
20260507031247 63 147 0.0 1.0 0.00 0.05 0.05 93 1005.2
20260507030744 63 136 1.0 2.0 0.00 0.05 0.05 93 1005.2
20260507030241 63 50 0.0 2.0 0.00 0.05 0.05 93 1005.2
20260507025738 63 102 2.0 2.0 0.00 0.05 0.05 93 1005.1
20260507025235 64 101 1.0 1.0 0.00 0.05 0.05 93 1005.2
20260507024734 64 98 0.0 1.0 0.00 0.05 0.05 93 1005.3
20260507024231 64 99 0.0 1.0 0.00 0.05 0.05 92 1005.1
20260507023726 64 100 1.0 2.0 0.00 0.05 0.05 92 1005.2
20260507023223 64 93 0.0 1.0 0.00 0.05 0.05 92 1005.5
20260507022720 64 99 0.0 0.0 0.00 0.05 0.05 92 1005.8
20260507022216 64 99 0.0 1.0 0.00 0.05 0.05 92 1005.5
20260507021713 64 142 0.0 1.0 0.00 0.05 0.05 92 1005.8
20260507021208 64 89 0.0 0.0 0.00 0.05 0.05 92 1006.3
20260507020707 64 89 0.0 1.0 0.00 0.05 0.05 92 1006.0
20260507020202 64 128 0.0 2.0 0.00 0.05 0.05 92 1005.9
20260507015701 64 137 1.0 1.0 0.00 0.05 0.05 92 1005.7
20260507015158 64 89 0.0 1.0 0.00 0.05 0.05 92 1005.9
20260507014654 64 135 0.0 1.0 0.00 0.05 0.05 92 1005.8
20260507014150 64 205 0.0 0.0 0.00 0.05 0.05 91 1005.6
20260507013647 64 50 0.0 0.0 0.00 0.05 0.05 91 1005.6
20260507013144 65 50 0.0 1.0 0.00 0.05 0.05 91 1005.8
20260507012642 65 129 0.0 0.0 0.00 0.05 0.05 90 1005.5
20260507012137 65 129 0.0 1.0 0.00 0.05 0.05 90 1005.6
20260507011636 65 54 0.0 1.0 0.00 0.05 0.05 90 1005.6
20260507011131 66 110 1.0 1.0 0.00 0.05 0.05 89 1005.6
20260507010626 66 118 1.0 2.0 0.00 0.05 0.05 89 1005.6
20260507010123 66 123 0.0 1.0 0.00 0.05 0.05 88 1005.8
20260507005620 66 89 0.0 2.0 0.00 0.05 0.05 88 1005.6
20260507005116 66 110 0.0 1.0 0.00 0.05 0.05 88 1005.8
20260507004613 66 45 0.0 1.0 0.00 0.05 0.05 87 1005.4
20260507004110 67 101 0.0 1.0 0.00 0.05 0.05 86 1005.7
20260507003606 67 95 0.0 2.0 0.00 0.05 0.05 86 1005.6
20260507003101 67 106 1.0 1.0 0.00 0.05 0.05 85 1005.5
20260507002558 67 89 0.0 0.0 0.00 0.05 0.05 85 1005.5
20260507002054 67 122 1.0 2.0 0.00 0.05 0.05 85 1005.5
20260507001551 67 107 0.0 2.0 0.00 0.05 0.05 85 1005.2
20260507001049 68 123 0.0 2.0 0.00 0.05 0.05 85 1005.5
20260507000545 68 129 0.0 1.0 0.00 0.05 0.05 84 1005.3
20260507000040 68 98 0.0 2.0 0.00 0.05 0.05 84 1005.2
20260506235538 68 105 0.0 1.0 0.00 0.05 0.05 84 1005.2
20260506235033 68 126 0.0 2.0 0.00 0.05 0.05 83 1005.1
20260506234530 68 110 0.0 1.0 0.00 0.05 0.05 83 1005.1
20260506234022 69 109 1.0 1.0 0.00 0.05 0.05 82 1005.1
20260506233519 69 152 1.0 2.0 0.00 0.05 0.05 82 1005.2
20260506233016 69 55 0.0 2.0 0.00 0.05 0.05 82 1005.2
20260506232512 69 115 2.0 2.0 0.00 0.05 0.05 82 1005.0
20260506232007 69 122 2.0 3.0 0.00 0.05 0.05 81 1004.9
20260506231505 69 151 0.0 3.0 0.00 0.05 0.05 81 1004.9
20260506231003 69 128 2.0 2.0 0.00 0.05 0.05 81 1004.7
20260506230459 69 119 3.0 3.0 0.00 0.05 0.05 81 1005.1
20260506225956 69 117 2.0 3.0 0.00 0.05 0.05 80 1004.9
20260506225453 70 212 0.0 3.0 0.00 0.05 0.05 80 1004.9
20260506224949 70 187 1.0 3.0 0.00 0.05 0.05 80 1005.1
20260506224446 70 48 2.0 3.0 0.00 0.05 0.05 79 1005.0
20260506223943 70 335 0.0 3.0 0.00 0.05 0.05 80 1004.7
20260506223439 70 219 0.0 2.0 0.00 0.05 0.05 79 1004.9
20260506222936 70 127 2.0 3.0 0.00 0.05 0.05 80 1005.3
20260506222432 70 207 2.0 3.0 0.00 0.05 0.05 79 1005.3
20260506221929 70 203 1.0 3.0 0.00 0.05 0.05 80 1004.9
20260506221426 69 78 1.0 3.0 0.00 0.05 0.05 80 1004.9
20260506220924 69 147 1.0 2.0 0.00 0.05 0.05 80 1005.1
20260506220419 70 191 0.0 4.0 0.00 0.05 0.05 80 1005.1
20260506215916 69 113 2.0 3.0 0.00 0.05 0.05 80 1005.0
20260506215412 69 94 1.0 2.0 0.00 0.05 0.05 80 1005.1
20260506214908 69 81 2.0 4.0 0.00 0.05 0.05 80 1004.9
20260506214405 69 166 1.0 3.0 0.00 0.05 0.05 80 1005.2
20260506213903 69 111 2.0 3.0 0.00 0.05 0.05 80 1005.3
20260506213401 69 141 0.0 3.0 0.00 0.05 0.05 80 1005.4
20260506212858 69 43 0.0 4.0 0.00 0.05 0.05 80 1005.4
20260506212353 69 140 0.0 2.0 0.00 0.05 0.05 80 1005.5
20260506211848 69 150 1.0 3.0 0.00 0.05 0.05 79 1005.3
20260506211345 69 159 2.0 3.0 0.00 0.05 0.05 79 1005.4
20260506210842 69 106 2.0 5.0 0.00 0.05 0.05 80 1005.2
20260506210339 69 225 5.0 5.0 0.00 0.05 0.05 78 1005.3
20260506205836 69 233 0.0 3.0 0.00 0.05 0.05 79 1005.2
20260506205332 69 89 0.0 3.0 0.00 0.05 0.05 80 1005.0
20260506204829 68 63 1.0 3.0 0.00 0.05 0.05 81 1005.5
20260506204326 68 311 2.0 3.0 0.00 0.05 0.05 81 1005.1
20260506203824 68 177 0.0 2.0 0.00 0.05 0.05 82 1005.2
20260506203321 68 160 1.0 3.0 0.00 0.05 0.05 82 1004.9
20260506202817 68 143 2.0 8.0 0.00 0.05 0.05 81 1005.0
20260506202315 68 117 2.0 5.0 0.00 0.05 0.05 82 1005.2
20260506201811 68 165 2.0 2.0 0.00 0.05 0.05 82 1005.2
20260506201309 68 156 0.0 3.0 0.00 0.05 0.05 82 1005.3
20260506200805 68 76 2.0 4.0 0.00 0.05 0.05 82 1005.3
20260506200301 67 312 1.0 3.0 0.00 0.05 0.05 83 1005.1
20260506195758 67 148 1.0 3.0 0.00 0.05 0.05 83 1005.2
20260506195255 67 97 3.0 4.0 0.00 0.05 0.05 83 1005.5
20260506194752 67 218 0.0 2.0 0.00 0.05 0.05 83 1005.8
20260506194248 67 267 2.0 4.0 0.00 0.05 0.05 83 1005.6
20260506193746 68 324 1.0 5.0 0.00 0.05 0.05 82 1005.5
20260506193243 68 192 0.0 4.0 0.00 0.05 0.05 82 1005.8
20260506192739 68 126 3.0 5.0 0.00 0.05 0.05 82 1005.7
20260506192236 68 196 0.0 3.0 0.00 0.05 0.05 82 1005.7
20260506191732 68 20 0.0 3.0 0.00 0.05 0.05 83 1005.6
20260506191229 68 113 2.0 3.0 0.00 0.05 0.05 83 1005.8
20260506190726 68 154 0.0 4.0 0.00 0.05 0.05 83 1005.9
20260506190223 67 326 0.0 4.0 0.00 0.05 0.05 82 1005.7
20260506185720 67 74 1.0 3.0 0.00 0.05 0.05 84 1005.8
20260506185216 67 159 3.0 3.0 0.00 0.05 0.05 83 1006.3
20260506184714 67 146 2.0 4.0 0.00 0.05 0.05 82 1006.1
20260506184211 67 29 0.0 4.0 0.00 0.05 0.05 84 1006.4
20260506183708 67 134 1.0 3.0 0.00 0.05 0.05 83 1006.5
20260506183203 67 156 4.0 4.0 0.00 0.05 0.05 82 1006.3
20260506182701 67 124 0.0 4.0 0.00 0.05 0.05 83 1006.3
20260506182158 67 83 2.0 4.0 0.00 0.05 0.05 83 1006.0
20260506181655 66 133 0.0 3.0 0.00 0.05 0.05 84 1006.2
20260506181152 66 150 3.0 4.0 0.00 0.05 0.05 85 1006.1
20260506180649 66 102 1.0 3.0 0.00 0.05 0.05 86 1006.4
20260506180140 66 112 2.0 3.0 0.00 0.05 0.05 87 1006.5
20260506175637 66 135 2.0 2.0 0.00 0.05 0.05 88 1006.6
20260506175132 65 226 1.0 2.0 0.00 0.05 0.05 89 1006.5
20260506174626 65 35 2.0 3.0 0.00 0.05 0.05 88 1006.6
20260506174122 65 76 2.0 3.0 0.00 0.05 0.05 90 1006.7
20260506173620 65 70 1.0 3.0 0.00 0.05 0.05 90 1006.7
20260506173116 64 107 2.0 3.0 0.00 0.05 0.05 90 1006.6
20260506172614 64 195 0.0 2.0 0.00 0.05 0.05 90 1006.8
20260506172110 64 94 2.0 5.0 0.00 0.05 0.05 91 1006.9
20260506171608 64 130 0.0 4.0 0.00 0.05 0.05 91 1006.7
20260506171105 63 89 0.0 2.0 0.00 0.05 0.05 91 1006.9
20260506170601 63 87 1.0 3.0 0.00 0.05 0.05 92 1006.6
20260506170054 63 99 1.0 2.0 0.00 0.05 0.05 92 1006.7
20260506165552 63 104 2.0 5.0 0.00 0.05 0.05 92 1007.1
20260506165048 63 108 1.0 4.0 0.00 0.05 0.05 92 1006.9
20260506164545 63 299 0.0 3.0 0.00 0.05 0.05 93 1006.9
20260506164042 62 293 0.0 3.0 0.00 0.05 0.05 93 1006.9
20260506163538 62 96 0.0 3.0 0.02 0.05 0.05 93 1006.9
20260506163034 62 110 1.0 3.0 0.02 0.05 0.05 93 1006.9
20260506162530 62 227 2.0 3.0 0.02 0.04 0.04 93 1006.8
20260506162027 62 152 0.0 3.0 0.05 0.04 0.04 93 1007.3
20260506161524 62 158 2.0 2.0 0.02 0.04 0.04 93 1007.3
20260506161016 61 86 2.0 4.0 0.05 0.04 0.04 93 1007.6
20260506160513 61 123 2.0 3.0 0.07 0.03 0.03 92 1007.3
20260506160010 62 141 2.0 4.0 0.09 0.02 0.02 92 1007.8